EC2UT-13 Weather Reports


time (UTC)temp
C
wind
direction
speed
KPH
gust
KPH
rain 1hr
cm
rain 24hr
cm
rain mn
cm
humidity
%
barometer
mb
20260506112517 17 338 11.3 25.7 0.00 0.00 0.00 41 1014.3
20260506111516 17 315 11.3 22.5 0.00 0.00 0.00 38 1014.4
20260506110516 17 180 6.4 12.9 0.00 0.00 0.00 39 1014.5
20260506105516 16 270 9.7 20.9 0.00 0.00 0.00 38 1014.5
20260506104516 16 315 8.0 19.3 0.00 0.00 0.00 40 1014.5
20260506103516 16 293 9.7 25.7 0.00 0.00 0.00 39 1014.7
20260506102517 16 338 11.3 22.5 0.00 0.00 0.00 42 1014.7
20260506101536 15 315 14.5 25.7 0.00 0.00 0.00 39 1014.8
20260506100516 15 315 16.1 37.0 0.00 0.00 0.00 42 1014.9
20260506095516 15 270 8.0 19.3 0.00 0.00 0.00 43 1015.0
20260506094516 15 270 8.0 20.9 0.00 0.00 0.00 44 1014.9
20260506093516 15 248 9.7 20.9 0.00 0.00 0.00 43 1015.1
20260506092536 15 338 9.7 22.5 0.00 0.00 0.00 45 1015.1
20260506091516 14 293 12.9 24.1 0.00 0.00 0.00 46 1015.0
20260506090517 13 270 11.3 22.5 0.00 0.00 0.00 47 1015.0
20260506085516 13 293 12.9 27.4 0.00 0.00 0.00 46 1015.0
20260506084516 13 270 8.0 17.7 0.00 0.00 0.00 48 1015.0
20260506083516 13 293 11.3 20.9 0.00 0.00 0.00 49 1014.9
20260506082516 13 248 8.0 17.7 0.00 0.00 0.00 49 1015.0
20260506081516 13 315 8.0 19.3 0.00 0.00 0.00 49 1014.9
20260506080516 12 293 9.7 19.3 0.00 0.00 0.00 49 1014.9
20260506073516 12 270 6.4 14.5 0.00 0.00 0.00 53 1015.0
20260506072517 11 270 8.0 16.1 0.00 0.00 0.00 53 1015.0
20260506071516 11 270 8.0 17.7 0.00 0.00 0.00 54 1015.1
20260506070516 11 293 8.0 17.7 0.00 0.00 0.00 55 1015.1
20260506062516 10 293 3.2 11.3 0.00 0.00 0.00 56 1015.0
20260506061516 10 293 3.2 8.0 0.00 0.00 0.00 56 1014.9
20260506060516 10 315 4.8 14.5 0.00 0.00 0.00 57 1014.9
20260506050518 9 270 6.4 12.9 0.00 0.00 0.00 59 1014.6
20260506044518 9 293 4.8 11.3 0.00 0.00 0.00 60 1014.5
20260506043518 9 293 4.8 9.7 0.00 0.00 0.00 60 1014.4
20260506042538 9 293 8.0 16.1 0.00 0.00 0.00 59 1014.3
20260506041518 9 315 6.4 14.5 0.00 0.00 0.00 59 1014.3
20260506040517 10 293 8.0 16.1 0.00 0.00 0.00 59 1014.4
20260506035517 10 315 8.0 14.5 0.00 0.00 0.00 59 1014.4
20260506034518 10 293 6.4 14.5 0.00 0.00 0.00 58 1014.5
20260506033518 10 270 8.0 14.5 0.00 0.00 0.00 58 1014.5
20260506032518 10 270 6.4 14.5 0.00 0.00 0.00 58 1014.5
20260506031517 10 270 4.8 11.3 0.00 0.00 0.00 57 1014.5
20260506030518 10 270 6.4 17.7 0.00 0.00 0.00 57 1014.4
20260506025518 10 293 4.8 11.3 0.00 0.00 0.00 57 1014.5
20260506024518 10 270 6.4 12.9 0.00 0.00 0.00 57 1014.4
20260506023517 10 293 6.4 16.1 0.00 0.00 0.00 57 1014.4
20260506022517 10 293 3.2 6.4 0.00 0.00 0.00 58 1014.3
20260506021537 10 270 6.4 12.9 0.00 0.00 0.00 58 1014.1
20260506020517 10 315 8.0 16.1 0.00 0.00 0.00 58 1014.1
20260506015517 10 315 6.4 16.1 0.00 0.00 0.00 58 1014.1
20260506014517 10 338 8.0 12.9 0.00 0.03 0.00 58 1014.1
20260506013518 11 338 6.4 9.7 0.00 0.03 0.00 57 1014.1
20260506012537 11 338 9.7 14.5 0.00 0.03 0.00 56 1014.1
20260506011538 11 293 8.0 16.1 0.00 0.03 0.00 56 1014.0
20260506010517 11 270 8.0 24.1 0.00 0.03 0.00 56 1014.0
20260506005517 11 203 6.4 24.1 0.00 0.03 0.00 57 1014.1
20260506004518 11 270 9.7 16.1 0.00 0.03 0.00 57 1014.1
20260506003538 11 270 11.3 22.5 0.00 0.03 0.00 57 1014.0
20260506002517 11 270 9.7 20.9 0.00 0.03 0.00 56 1014.2
20260506001518 11 315 8.0 19.3 0.00 0.03 0.00 56 1014.2
20260506000517 11 270 11.3 20.9 0.00 0.03 0.00 56 1014.2
20260505235517 11 270 9.7 17.7 0.00 0.03 0.03 56 1014.3
20260505234517 12 293 8.0 19.3 0.00 0.03 0.03 56 1014.3
20260505233538 12 270 9.7 20.9 0.00 0.03 0.03 56 1014.4
20260505232517 12 270 9.7 19.3 0.00 0.03 0.03 56 1014.5
20260505231518 12 248 8.0 17.7 0.00 0.03 0.03 56 1014.3
20260505230517 12 293 9.7 17.7 0.00 0.03 0.03 55 1014.3
20260505225517 12 293 9.7 19.3 0.00 0.03 0.03 55 1014.3
20260505224517 12 270 12.9 20.9 0.00 0.03 0.03 55 1014.4
20260505223517 12 293 11.3 19.3 0.00 0.03 0.03 55 1014.3
20260505222517 12 315 8.0 16.1 0.00 0.03 0.03 55 1014.3
20260505221537 12 293 4.8 14.5 0.00 0.03 0.03 55 1014.2
20260505220537 13 270 8.0 17.7 0.00 0.03 0.03 55 1014.2
20260505215518 13 293 8.0 17.7 0.00 0.03 0.03 55 1014.1
20260505214518 13 270 9.7 19.3 0.00 0.03 0.03 54 1014.1
20260505213517 13 248 8.0 16.1 0.00 0.03 0.03 54 1014.1
20260505212518 13 270 8.0 14.5 0.00 0.03 0.03 54 1014.2
20260505211537 13 225 4.8 14.5 0.00 0.03 0.03 54 1014.1
20260505210517 13 203 4.8 14.5 0.00 0.03 0.03 53 1014.0
20260505205537 14 248 1.6 9.7 0.00 0.03 0.03 53 1014.2
20260505204517 13 270 6.4 17.7 0.00 0.03 0.03 53 1013.9
20260505203517 14 315 6.4 12.9 0.00 0.03 0.03 52 1013.8
20260505202517 14 293 8.0 16.1 0.00 0.03 0.03 52 1014.0
20260505201517 14 315 6.4 12.9 0.00 0.03 0.03 50 1013.8
20260505200517 14 270 8.0 17.7 0.00 0.03 0.03 50 1013.7
20260505195517 15 270 11.3 19.3 0.00 0.03 0.03 48 1013.5
20260505194517 15 270 9.7 17.7 0.00 0.03 0.03 47 1013.4
20260505193517 15 293 8.0 17.7 0.00 0.03 0.03 46 1013.2
20260505192537 15 293 9.7 17.7 0.00 0.03 0.03 45 1012.9
20260505191517 15 315 6.4 14.5 0.00 0.03 0.03 43 1012.8
20260505190517 16 270 6.4 16.1 0.00 0.03 0.03 44 1013.1
20260505185517 16 180 6.4 17.7 0.00 0.03 0.03 47 1013.0
20260505184517 16 293 12.9 30.6 0.00 0.03 0.03 43 1012.8
20260505183517 16 315 9.7 20.9 0.00 0.03 0.03 43 1012.6
20260505182516 16 293 9.7 19.3 0.00 0.03 0.03 44 1012.2
20260505181517 16 315 14.5 24.1 0.00 0.03 0.03 43 1012.0
20260505180617 16 315 14.5 25.7 0.00 0.03 0.03 42 1011.9
20260505175517 16 338 17.7 32.2 0.00 0.03 0.03 42 1011.9
20260505174537 16 338 8.0 16.1 0.00 0.03 0.03 45 1011.8
20260505173517 16 338 6.4 12.9 0.00 0.03 0.03 45 1011.7
20260505172537 16 0 11.3 19.3 0.00 0.03 0.03 43 1011.6
20260505171516 17 0 24.1 32.2 0.00 0.03 0.03 43 1011.5
20260505170517 18 293 14.5 35.4 0.00 0.03 0.03 38 1011.5
20260505165517 18 270 8.0 19.3 0.00 0.03 0.03 37 1011.3
20260505164517 18 293 4.8 16.1 0.00 0.03 0.03 38 1011.4
20260505163516 18 293 11.3 24.1 0.00 0.03 0.03 39 1011.5
20260505162517 18 293 11.3 20.9 0.00 0.03 0.03 38 1011.4
20260505161516 19 293 11.3 24.1 0.00 0.03 0.03 35 1011.4
20260505160537 20 315 12.9 27.4 0.00 0.03 0.03 33 1011.3
20260505152516 19 270 8.0 20.9 0.00 0.03 0.03 34 1011.4
20260505151537 20 338 11.3 19.3 0.00 0.03 0.03 35 1011.3
20260505150537 20 270 3.2 11.3 0.00 0.08 0.03 33 1011.5
20260505140536 19 270 6.4 12.9 0.00 0.43 0.03 35 1012.1
20260505124516 17 203 3.2 6.4 0.00 0.46 0.03 40 1012.6
20260505123516 17 158 1.6 8.0 0.00 0.46 0.03 43 1012.8
20260505122516 16 180 4.8 12.9 0.00 0.46 0.03 46 1012.9
20260505121516 16 293 6.4 12.9 0.00 0.46 0.03 48 1012.7
20260505120516 16 315 12.9 22.5 0.00 0.46 0.03 46 1013.0
20260505115516 17 315 12.9 22.5 0.00 0.46 0.03 45 1013.0
20260505114516 17 293 8.0 22.5 0.00 0.46 0.03 50 1013.1
20260505113516 17 293 12.9 24.1 0.00 0.46 0.03 49 1013.3